Rbgn^[z[y[W
メイン
   新天体発見情報
     Comet C/2024 N3 (Sarneczky)
投稿するにはまず登録を

スレッド表示 | 新しいものから 前のトピック | 次のトピック | 下へ
投稿者 スレッド
佐藤裕久
投稿日時: 2024-7-20 14:09
モデレータ
登録日: 2005-6-12
居住地: 日本
投稿: 2676
オンライン
Comet C/2024 N3 (Sarneczky)

Krisztián Sárneczky (Konkoly天文台)の通報によると、7月8-9日UT、ハンガリーのPiszkesteto
天文台の0.60-mSchmidt望遠鏡で得た11枚の60-秒w-バンドスタック画像(限界等級約20.5等)から
彗星を発見した、
発見画像は、近傍の恒星よりやや拡散し集光した4"の頭部が見え、尾はない。 7月10日、同じ
望遠鏡で得た15枚の60-秒フォローアップ画像では、南北方向にやや細長い(進行方向ではない)
ぼんやりした約6"×8"のコマがあり、やはり尾はない。
小惑星センターのPCCP webpageに公表後、L. BuzziとG. Galli (Varese, イタリアは、7月9.95-
9.97日UT, 60-秒CMOS露出43枚のスタック, 0.84-m f/3.5 反射望遠鏡, 測定はBuzziとA. Aletti): 
やや拡散した様に見え、中程度の集光した6"のコマがあるが尾はない)らCCD位置観測者によって
彗星状と観測された。
佐藤英貴氏(東京都文京区, 7月10.4日、60-秒露出12枚のスタック, 0.43-m f/6.8 アストログラフ, 
Utah Desert Remote 天文台, Beryl Junction 近郊, ユタ州, 米国, 遠隔操作)の観測では、恒星状
にしか見えなかった、3".8の円形範囲で測定した光度は20.4等であった。
P. Veres(小惑星センター)は、MPCの "isolated tracklet file "の中に、2023年12月15.3日UT、
M. Holbrookが0.36-m f/2.2の反射望遠鏡による20.3-20.5等に見える一夜のCCD観測の可能性を見つ
けた。 Veresは次にR. Weryk (西オンタリオ大学,物理および天文学科)に、Haleakalaで得られた
発見前の画像から彗星を確認できる可能性のあるものを探すように依頼した。WerykはPan-STARRS2 
1.8-m Ritchey-Chretien反射望遠鏡で得た、2023年10月9.6日の明らかに小惑星のような画像を報告
した。

彗星機能の報告は次のとおり、

OC   Date        Reporter           Coma    Tail    PA          Exposures
K88  2024-07-10  K. Sarneczky       8"
Z28  2024-07-10  J. Camarasa        5".92    
126  2024-07-10  L. Sannino         2"
K88  2024-07-11  K. Sarneczky       7"                            25x60s
Z84  2024-07-14  F. Ocana           8"        8"    320-350        9x70s

発見位置は次のとおり、

     2024 UT             R.A. (2000) Decl.       Mag.   Observer
     July  8.89672    5 58 15.64   +70 24 52.0   19.6   Sarneczky
           8.90593    5 58 16.57   +70 24 55.4   19.6     "
           8.96236    5 58 23.46   +70 25 22.1   19.4     "
           9.00406    5 58 28.38   +70 25 40.4   19.5     "
           9.00938    5 58 29.03   +70 25 42.3   19.4     "
           9.01471    5 58 29.60   +70 25 45.5   19.2     "
           9.02061    5 58 30.32   +70 25 48.0   19.3     "
           9.02594    5 58 31.00   +70 25 50.6   19.5     "
           9.03144    5 58 31.67   +70 25 52.7   19.5     "

MPCの双曲線軌道要素、位置推算表は次のとおり、

Orbital elements:
    C/2024 N3 (Sarneczky)                                                       
Epoch 2024 Mar. 31.0 TT = JDT 2460400.5                                         
T 2025 Apr. 11.17607 TT                                 Rudenko                 
q   5.0155950            (2000.0)            P               Q                  
z  -0.0001139      Peri.   86.84443     -0.01487830     -0.12965297             
 +/-0.0000297      Node    82.60914     -0.34437766     -0.93022685             
e   1.0005712      Incl.   88.72925     +0.93871330     -0.34331927             
From 100 observations 2023 Oct. 9-2024 July 17, mean residual 0".4.             
                                                                                
Ephemeris:
Date    TT    R. A. (2000) Decl.     Delta      r    Elong.  Phase   m1
2024 06 18    05 20 56.0 +67 59 55   6.1778  5.5033    44.8     7.5  19.4
...
2024 07 03    05 46 58.5 +69 41 30   6.0910  5.4578    47.6     7.9  19.3
...
2024 07 11    06 02 26.6 +70 40 47   6.0326  5.4344    49.9     8.2  19.3
...
2024 07 17    06 14 53.1 +71 27 23   5.9840  5.4171    52.0     8.5  19.2
2024 07 18    06 17 02.1 +71 35 19   5.9755  5.4143    52.3     8.5  19.2
2024 07 19    06 19 12.6 +71 43 17   5.9670  5.4115    52.7     8.6  19.2
...
2024 07 25    06 32 46.8 +72 32 03   5.9136  5.3946    54.9     8.9  19.2
...
2024 08 02    06 52 27.8 +73 39 12   5.8377  5.3727    58.2     9.2  19.1
...
2024 08 17    07 35 40.6 +75 49 36   5.6849  5.3331    64.8     9.9  19.0

(MPEC 2024-O11、CBET 5417)

スレッド表示 | 新しいものから 前のトピック | 次のトピック | トップ

投稿するにはまず登録を
 
© 1999 Tsutomu Seki.